Hill City, KS

8:08 AM CDT on March 23, 2017 (GMT -0500)
Hill City Municipal

Weather History for KHLC - August, 2013

Change the Weather History Date:

Tuesday, August 13, 2013

  Actual Average Record
Temperature  
Mean Temperature 71 °F 77 °F  
Max Temperature 79 °F 91 °F 111 °F (1936)
Min Temperature 62 °F 64 °F 44 °F (1920)
Cooling Degree Days 6    
Growing Degree Days 20 (Base 50)    
Moisture  
Dew Point 64 °F    
Average Humidity 81    
Maximum Humidity 100    
Minimum Humidity 61    
Precipitation  
Precipitation T in 0.09 in 0.24 in (2008)
Month to date precipitation 0.61 1.23  
Year to date precipitation 12.79 16.20  
Sea Level Pressure  
Sea Level Pressure 30.11 in    
Wind  
Wind Speed 6 mph (ENE)    
Max Wind Speed 20 mph    
Max Gust Speed 24 mph    
Visibility 8 miles    
Events Thunderstorm    
T = Trace of Precipitation, MM = Missing Value Source: NWS Daily Summary

Daily Weather History Graph

Daily Weather History Graph

Search for Another Location

Airport or City:

Trip Planner

Search our weather history database for the weather conditions in past years. The results will help you decide how hot, cold, wet, or windy it might be!

Date:

Astronomy

Aug. 13, 2013 Rise Set
Actual Time 6:50 AM CDT 8:37 PM CDT
Civil Twilight 6:21 AM CDT 9:05 PM CDT
Nautical Twilight 5:46 AM CDT 9:40 PM CDT
Astronomical Twilight 5:09 AM CDT 10:17 PM CDT
Moon 1:44 PM CDT (8/13) No Moon Set
Length of Visible Light 14h 44m
Length of Day
13h 46m
Waxing Crescent, 42% of the Moon is Illuminated
Aug 13
Waxing Crescent
Aug 14
First Quarter
Aug 20
Full
Aug 28
Last Quarter
Sep 5
New

Hourly Weather History & Observations

Time (CDT) Temp. Dew Point Humidity Pressure Visibility Wind Dir Wind Speed Gust Speed Precip Events Conditions
12:53 AM 69.1 °F 64.0 °F 84% 30.05 in 10.0 mi ENE 5.8 mph - N/A   Clear
1:53 AM 68.0 °F 64.9 °F 90% 30.04 in 10.0 mi Calm Calm - N/A   Clear
2:53 AM 68.0 °F 64.0 °F 87% 30.03 in 10.0 mi Calm Calm - N/A   Clear
3:53 AM 66.9 °F 64.9 °F 93% 30.02 in 10.0 mi WNW 4.6 mph - N/A   Clear
4:53 AM 66.0 °F 63.0 °F 90% 30.03 in 10.0 mi NW 4.6 mph - N/A   Clear
5:53 AM 64.9 °F 63.0 °F 93% 30.04 in 10.0 mi North 6.9 mph - N/A   Clear
6:53 AM 64.0 °F 63.0 °F 96% 30.06 in 10.0 mi North 8.1 mph - N/A   Clear
7:53 AM 66.9 °F 64.9 °F 93% 30.06 in 9.0 mi East 4.6 mph - N/A   Partly Cloudy
8:12 AM 66.2 °F 66.2 °F 100% 30.12 in 1.8 mi NE 6.9 mph - N/A   Scattered Clouds
8:15 AM 66.2 °F 66.2 °F 100% 30.12 in 0.8 mi NE 6.9 mph - N/A   Mist
8:35 AM 68.0 °F 66.2 °F 94% 30.13 in 1.0 mi NE 6.9 mph - N/A   Overcast
8:42 AM 69.8 °F 66.2 °F 88% 30.14 in 2.0 mi ENE 4.6 mph - N/A   Overcast
8:51 AM 69.8 °F 66.2 °F 88% 30.14 in 3.0 mi ENE 4.6 mph - N/A   Overcast
8:53 AM 69.1 °F 66.9 °F 93% 30.09 in 4.0 mi ENE 4.6 mph - N/A   Overcast
9:07 AM 69.8 °F 66.2 °F 88% 30.14 in 6.0 mi ENE 4.6 mph - N/A   Overcast
9:32 AM 69.8 °F 66.2 °F 88% 30.15 in 9.0 mi ENE 3.5 mph - N/A   Mostly Cloudy
9:45 AM 71.6 °F 66.2 °F 83% 30.16 in 10.0 mi NE 3.5 mph - N/A   Scattered Clouds
9:53 AM 72.0 °F 66.9 °F 84% 30.10 in 10.0 mi NE 5.8 mph - N/A   Scattered Clouds
10:53 AM 77.0 °F 66.9 °F 71% 30.11 in 10.0 mi NE 6.9 mph - N/A   Partly Cloudy
11:19 AM 77.0 °F 66.2 °F 69% 30.18 in 10.0 mi NE 10.4 mph - N/A   Mostly Cloudy
11:39 AM 75.2 °F 66.2 °F 73% 30.17 in 10.0 mi NE 8.1 mph - N/A   Scattered Clouds
11:53 AM 75.9 °F 64.9 °F 69% 30.13 in 10.0 mi NNE 19.6 mph 24.2 mph N/A   Scattered Clouds
12:39 PM 75.2 °F 62.6 °F 65% 30.15 in 10.0 mi NE 15.0 mph - 0.00 in Thunderstorm Clear
12:53 PM 75.9 °F 63.0 °F 64% 30.11 in 10.0 mi East 8.1 mph - 0.00 in Thunderstorm Partly Cloudy
1:11 PM 69.8 °F 62.6 °F 78% 30.17 in 10.0 mi South 10.4 mph 18.4 mph N/A   Mostly Cloudy
1:20 PM 71.6 °F 64.4 °F 78% 30.17 in 10.0 mi SSE 10.4 mph - N/A   Mostly Cloudy
1:53 PM 73.9 °F 64.9 °F 73% 30.11 in 10.0 mi ESE 10.4 mph - N/A   Mostly Cloudy
2:53 PM 77.0 °F 64.0 °F 64% 30.10 in 10.0 mi ESE 12.7 mph 18.4 mph N/A   Clear
3:53 PM 75.9 °F 66.0 °F 71% 30.09 in 10.0 mi East 13.8 mph - N/A   Partly Cloudy
4:53 PM 75.9 °F 64.0 °F 67% 30.07 in 10.0 mi ESE 12.7 mph - N/A   Clear
5:53 PM 77.0 °F 63.0 °F 62% 30.07 in 10.0 mi ESE 11.5 mph - N/A   Clear
6:19 PM 77.0 °F 62.6 °F 61% 30.12 in 4.0 mi ESE 11.5 mph - N/A   Haze
6:53 PM 75.9 °F 63.0 °F 64% 30.06 in 10.0 mi SE 10.4 mph - N/A   Clear
7:53 PM 73.0 °F 63.0 °F 71% 30.08 in 10.0 mi ESE 5.8 mph - N/A   Clear
8:53 PM 70.0 °F 63.0 °F 78% 30.09 in 10.0 mi ESE 8.1 mph - N/A   Clear
9:25 PM 68.0 °F 62.6 °F 83% 30.15 in 10.0 mi SE 6.9 mph - N/A   Mostly Cloudy
9:33 PM 66.2 °F 62.6 °F 88% 30.16 in 10.0 mi ESE 4.6 mph - N/A   Scattered Clouds
9:53 PM 66.0 °F 62.1 °F 87% 30.13 in 10.0 mi ESE 3.5 mph - N/A   Clear
10:53 PM 64.0 °F 61.0 °F 90% 30.13 in 10.0 mi East 3.5 mph - N/A   Clear
11:53 PM 63.0 °F 61.0 °F 93% 30.13 in 10.0 mi Calm Calm - N/A   Clear